Location: Newark
(55.4390°N, 25.0170°E)
Time: 18:20:24
(UTC+00:00)

Envisat - Pass Details

Date: 05 March 2021
Orbit: 764 x 766 km, 98.1° (Epoch: 17 April)

Event Time Altitude Azimuth Distance (km) Brightness Sun altitude
Rises 03:40:59 0° 18° (NNE) 3,249 6.6 -12.1°
Reaches altitude 10° 03:43:25 10° 25° (NNE) 2,318 5.9 -11.7°
Maximum altitude 03:48:19 46° 98° (E) 1,029 4.2 -11.0°
Drops below altitude 10° 03:53:11 10° 172° (S) 2,300 5.5 -10.3°
Sets 03:55:34 0° 178° (S) 3,221 6.2 -10.0°
